Regional Weather Roundup
Issued by NWS

Home | Current Version | Previous Version | Graphics & Text | Print | Product List | Glossary On
Versions: 1 2 3 4 5 6 7 8 9 10 11 12 13 14 15 16 17 18 19 20 21 22 23 24 25 26 27 28 29 30 31 32 33 34 35 36 37 38 39 40 41 42 43 44 45 46 47 48 49 50
884
ASUS45 KBOU 221307
RWRCO

WEATHER ROUNDUP FOR COLORADO
NATIONAL WEATHER SERVICE DENVER/BOULDER CO
700 AM MDT TUE AUG 22 2017

NOTE: "FAIR" INDICATES FEW OR NO CLOUDS BELOW 12000 FEET WITH NO
SIGNIFICANT WEATHER AND/OR OBSTRUCTIONS TO VISIBILITY.

COZ001>005-013-030-031-221400-
...NORTHWEST COLORADO...

CITY           SKY/WX    TMP DP  RH WIND       PRES   REMARKS
CRAIG          FAIR      42  34  73 CALM      30.36R
HAYDEN         FAIR      53  36  52 E12       30.39R
MEEKER         FAIR      51  37  58 CALM      30.37R
RABBIT EARS PA FAIR      52  34  50 SW9       30.64R
STEAMBOAT SPGS FAIR      45  37  75 CALM      30.40R
WALDEN         FAIR      37  32  81 SE6       30.49R
$$

COZ006>008-011-221400-
...WEST CENTRAL VALLEYS...

CITY           SKY/WX    TMP DP  RH WIND       PRES   REMARKS
GRAND JUNCTION FAIR      65  42  43 E10       30.24R
MONTROSE       FAIR      57  44  62 SE6       30.34R
EAGLE          FAIR      49  37  63 CALM      30.44R
RIFLE          FAIR      55  42  61 SE6       30.32R
DELTA          FAIR      62  44  51 CALM      30.30R
NUCLA          FAIR      61  39  44 E10       30.37R
$$

COZ017>023-064>068-221400-
...SOUTHWEST COLORADO...

CITY           SKY/WX    TMP DP  RH WIND       PRES   REMARKS
DURANGO        FAIR      54  44  69 CALM      30.37R
CORTEZ         FAIR      55  52  89 NE5       30.33R
PAGOSA SPRINGS MOCLDY    51  45  79 CALM      30.44S
TELLURIDE      MOCLDY    54  40  60 SE3       30.55S
WOLF CREEK PAS FAIR      41  37  87 N6        30.76R
$$

COZ009-010-012-014-032>034-037-058>063-221400-
...CENTRAL COLORADO...

CITY           SKY/WX    TMP DP  RH WIND       PRES   REMARKS
ASPEN          FAIR      47  38  71 CALM      30.46R
BUENA VISTA    FAIR      46  41  83 N3        30.51R
COPPER MTN     FAIR      52  30  43 SW13      30.75R
BERTHOUD PASS  FAIR      41  36  81 W9G21     30.77R
COTTONWOOD PAS FAIR      54  32  43 W7        30.61R
GUNNISON       FAIR      46  43  89 CALM      30.50R
KREMMLING      FAIR      45  37  76 CALM      30.49R
LEADVILLE      FAIR      37  33  85 NE5       30.60S
MONARCH PASS   MOCLDY    45  36  70 E8        30.83R
SALIDA         FAIR      51  44  78 NW3       30.56R
SUNLIGHT       FAIR      48  32  53 S5        30.68R
WILKERSON PASS FAIR      46  34  61 W5        30.72S
$$

COZ069>075-221400-
...SAN LUIS VALLEY/SANGRE DE CRISTO MOUNTAINS...

CITY           SKY/WX    TMP DP  RH WIND       PRES   REMARKS
ALAMOSA        FAIR      51  46  83 CALM      30.45R
DEL NORTE      FAIR      51  44  78 W12       30.48S
LA VETA PASS   NOT AVBL
SAGUACHE         N/A    N/A N/A N/A MISG        N/A
$$

COZ035-036-038>040-221400-
...NORTHERN COLORADO FRONT RANGE...

CITY           SKY/WX    TMP DP  RH WIND       PRES   REMARKS
DENVER INTL AP MOCLDY    56  53  90 SE8       30.32S
DMNS CITY PARK   N/A     59  51  74 SE7       30.32S
AURORA         NOT AVBL
FRONT RANGE AP FAIR      59  55  88 E14       30.34S
ERIE MUNI ARPT FAIR      54  50  85 CALM      30.37S
BOULDER MUN AP FAIR      57  50  77 CALM      30.32S
CENTENNIAL     FAIR      56  48  74 S3        30.35R
BROOMFIELD     MOCLDY    61  46  59 NW7       30.34S
FORT COLLINS   CLOUDY    61  52  72 E5        30.33R
LONGMONT       FAIR      57  49  75 CALM      30.33S HAZE
$$

COZ041-046-047-076>085-087-088-221400-
...PIKES PEAK/PALMER DIVIDE AND SOUTHERN FOOTHILLS...

CITY           SKY/WX    TMP DP  RH WIND       PRES   REMARKS
COLO. SPRINGS  FAIR      58  55  90 N3        30.39R
A. F. ACADEMY  FAIR      49  45  87 N6        30.40R
SCHRIEVER AFB  NOT AVBL
CHEYENNE MTN   FAIR      57  52  82 S9        30.37R
ELLICOTT       CLOUDY   N/A N/A N/A E7        30.38R
FALCON         FOG       56  56  99 E3        30.43R VSB 3/4
FORT CARSON    NOT AVBL
LIMON          CLOUDY    58  56  93 E7        30.36R
MONUMENT HILL  FOG       50  50 100 S6        30.43S VSB<1/4
CANON CITY     PTCLDY    61  52  72 MISG      30.35R
WALSENBURG     FAIR      61  59  94 NE3       30.39R
TRINIDAD       FAIR      57  52  83 N7        30.37R
$$

COZ042>045-048>051-090-091-221400-
...NORTHEAST COLORADO...

CITY           SKY/WX    TMP DP  RH WIND       PRES   REMARKS
GREELEY ARPT   CLOUDY    59  54  83 E3        30.32S
AKRON          MOCLDY    57  55  93 SE10      30.33R FOG
BURLINGTON     MOCLDY    60  59  96 NE8       30.30R FOG
WRAY           NOT AVBL
YUMA           CLOUDY    59  50  72 NE3       30.31R HAZE
STERLING       MOCLDY    57  55  94 CALM      30.30R
HOLYOKE        FAIR      55  54  94 CALM      30.30R
FORT MORGAN    CLOUDY    60  56  88 E9        30.34R
$$

COZ086-089-092>099-221400-
...SOUTHEAST COLORADO...

CITY           SKY/WX    TMP DP  RH WIND       PRES   REMARKS
PUEBLO         CLOUDY    67  59  75 S5        30.32R
LA JUNTA       CLOUDY    67  61  81 NE14      30.29R
LAMAR          CLOUDY    68  62  81 NE10      30.24R
SPRINGFIELD      N/A     63  63 100 NE14      30.26R
$$




USA.gov is the U.S. government's official web portal to all federal, state and local government web resources and services.